When you browse on this site, cookies collect data to enhance your experience and personalize the content and advertising you see.
Visit our Privacy Policy to learn more. By continuing to use the site, you agree to this use of cookies and data.

Hourly Weather Santa Cruz

Today, 13 July, Monday

Time Temperature Precipitation Wind Pressure Humidity
00:00 +25°C° 0 mm 3 mps 723 mmHg 74%
01:00 +24°C° 0 mm 3 mps 722 mmHg 75%
02:00 +24°C° 0 mm 3 mps 722 mmHg 77%
03:00 +24°C° 0.1 mm 3 mps 722 mmHg 78%
04:00 +24°C° 0.1 mm 2 mps 722 mmHg 78%
05:00 +24°C° 0.1 mm 2 mps 722 mmHg 79%
06:00 +24°C° 0.1 mm 1 mps 723 mmHg 79%
07:00 +24°C° 0.1 mm 1 mps 723 mmHg 78%
08:00 +25°C° 0 mm 1 mps 724 mmHg 76%
09:00 +26°C° 0.1 mm 2 mps 724 mmHg 68%
10:00 +28°C° 0.1 mm 3 mps 725 mmHg 61%
11:00 +30°C° 0.1 mm 4 mps 725 mmHg 53%
12:00 +32°C° 0 mm 5 mps 724 mmHg 50%
13:00 +33°C° 0 mm 5 mps 723 mmHg 47%
14:00 +33°C° 0 mm 5 mps 723 mmHg 44%
15:00 +33°C° 0 mm 4 mps 723 mmHg 47%
16:00 +31°C° 0 mm 3 mps 723 mmHg 49%
17:00 +30°C° 0 mm 2 mps 723 mmHg 52%
18:00 +29°C° 0 mm 2 mps 723 mmHg 58%
19:00 +27°C° 0 mm 2 mps 724 mmHg 63%
20:00 +26°C° 0 mm 1 mps 724 mmHg 69%
21:00 +25°C° 0.1 mm 3 mps 725 mmHg 73%
22:00 +23°C° 0.1 mm 4 mps 725 mmHg 77%
23:00 +22°C° 0.1 mm 5 mps 726 mmHg 81%

Tomorrow, 14 July, Tuesday

Time Temperature Precipitation Wind Pressure Humidity
00:00 +21°C° 0.1 mm 5 mps 726 mmHg 81%
01:00 +21°C° 0.1 mm 5 mps 726 mmHg 81%
02:00 +20°C° 0.1 mm 6 mps 726 mmHg 82%
03:00 +20°C° 0.3 mm 6 mps 726 mmHg 83%
04:00 +19°C° 0.3 mm 6 mps 726 mmHg 84%
05:00 +19°C° 0.3 mm 6 mps 727 mmHg 85%
06:00 +19°C° 0.1 mm 6 mps 727 mmHg 85%
07:00 +19°C° 0.1 mm 5 mps 727 mmHg 84%
08:00 +19°C° 0.1 mm 5 mps 728 mmHg 84%
09:00 +19°C° 0.1 mm 5 mps 728 mmHg 82%
10:00 +20°C° 0.1 mm 5 mps 728 mmHg 80%
11:00 +20°C° 0.1 mm 5 mps 729 mmHg 78%
12:00 +20°C° 0 mm 5 mps 728 mmHg 75%
13:00 +21°C° 0 mm 4 mps 727 mmHg 72%
14:00 +21°C° 0 mm 4 mps 727 mmHg 69%
15:00 +21°C° 0 mm 3 mps 726 mmHg 68%
16:00 +21°C° 0 mm 3 mps 726 mmHg 67%
17:00 +21°C° 0 mm 3 mps 725 mmHg 66%
18:00 +21°C° 0 mm 3 mps 725 mmHg 66%
19:00 +21°C° 0 mm 3 mps 726 mmHg 66%
20:00 +21°C° 0 mm 3 mps 726 mmHg 65%
21:00 +21°C° 0 mm 3 mps 726 mmHg 65%
22:00 +21°C° 0 mm 3 mps 726 mmHg 65%
23:00 +21°C° 0 mm 2 mps 726 mmHg 65%

Day after tomorrow, 15 July, Wednesday

Time Temperature Precipitation Wind Pressure Humidity
00:00 +21°C° 0 mm 2 mps 726 mmHg 66%
01:00 +20°C° 0 mm 2 mps 725 mmHg 68%
02:00 +20°C° 0 mm 2 mps 725 mmHg 69%
03:00 +20°C° 0 mm 2 mps 725 mmHg 71%
04:00 +19°C° 0 mm 2 mps 724 mmHg 72%
05:00 +20°C° 0 mm 1 mps 724 mmHg 74%
06:00 +20°C° 0 mm 1 mps 724 mmHg 71%
07:00 +21°C° 0 mm 1 mps 725 mmHg 68%
08:00 +21°C° 0 mm 1 mps 725 mmHg 65%
09:00 +24°C° 0 mm 1 mps 725 mmHg 58%
10:00 +26°C° 0 mm 1 mps 725 mmHg 50%
11:00 +29°C° 0 mm 1 mps 725 mmHg 42%
12:00 +30°C° 0 mm 2 mps 724 mmHg 42%
13:00 +32°C° 0 mm 4 mps 723 mmHg 41%
14:00 +33°C° 0 mm 5 mps 722 mmHg 40%
15:00 +32°C° 0 mm 5 mps 722 mmHg 43%
16:00 +30°C° 0 mm 5 mps 721 mmHg 46%
17:00 +30°C° 0 mm 5 mps 721 mmHg 49%
18:00 +28°C° 0 mm 4 mps 721 mmHg 55%
19:00 +26°C° 0 mm 3 mps 721 mmHg 61%
20:00 +25°C° 0 mm 3 mps 722 mmHg 68%
21:00 +24°C° 0 mm 2 mps 722 mmHg 70%
22:00 +24°C° 0 mm 2 mps 722 mmHg 72%
23:00 +23°C° 0 mm 2 mps 723 mmHg 74%

16 July, Thursday

Time Temperature Precipitation Wind Pressure Humidity
00:00 +23°C° 0 mm 2 mps 723 mmHg 74%
01:00 +23°C° 0 mm 2 mps 722 mmHg 74%
02:00 +23°C° 0 mm 2 mps 722 mmHg 74%
03:00 +23°C° 0 mm 2 mps 722 mmHg 75%
04:00 +21°C° 0 mm 2 mps 722 mmHg 77%
05:00 +21°C° 0 mm 2 mps 722 mmHg 78%
06:00 +23°C° 0 mm 2 mps 723 mmHg 76%
07:00 +23°C° 0 mm 2 mps 723 mmHg 74%
08:00 +24°C° 0 mm 2 mps 724 mmHg 72%
09:00 +27°C° 0 mm 3 mps 724 mmHg 61%
10:00 +30°C° 0 mm 4 mps 724 mmHg 50%
11:00 +34°C° 0 mm 6 mps 724 mmHg 39%
12:00 +34°C° 0 mm 6 mps 723 mmHg 37%
13:00 +35°C° 0 mm 6 mps 722 mmHg 35%
14:00 +36°C° 0 mm 7 mps 722 mmHg 33%
15:00 +35°C° 0 mm 6 mps 721 mmHg 36%
16:00 +34°C° 0 mm 6 mps 721 mmHg 38%
17:00 +33°C° 0 mm 5 mps 721 mmHg 41%
18:00 +32°C° 0 mm 5 mps 721 mmHg 46%
19:00 +29°C° 0 mm 4 mps 721 mmHg 52%
20:00 +27°C° 0 mm 3 mps 722 mmHg 57%
21:00 +27°C° 0 mm 3 mps 722 mmHg 61%
22:00 +26°C° 0 mm 2 mps 722 mmHg 64%
23:00 +25°C° 0 mm 2 mps 723 mmHg 68%

17 July, Friday

Time Temperature Precipitation Wind Pressure Humidity
00:00 +25°C° 0 mm 2 mps 722 mmHg 69%
01:00 +25°C° 0 mm 2 mps 722 mmHg 70%
02:00 +25°C° 0 mm 3 mps 722 mmHg 71%
03:00 +25°C° 0 mm 3 mps 722 mmHg 72%
04:00 +25°C° 0 mm 3 mps 722 mmHg 73%
05:00 +24°C° 0 mm 3 mps 722 mmHg 74%
06:00 +25°C° 0 mm 3 mps 722 mmHg 72%
07:00 +25°C° 0 mm 3 mps 723 mmHg 70%
08:00 +26°C° 0 mm 4 mps 723 mmHg 68%
09:00 +28°C° 0 mm 5 mps 723 mmHg 59%
10:00 +32°C° 0 mm 6 mps 723 mmHg 50%
11:00 +34°C° 0 mm 7 mps 723 mmHg 41%
12:00 +34°C° 0 mm 7 mps 723 mmHg 40%
13:00 +35°C° 0 mm 8 mps 722 mmHg 39%
14:00 +35°C° 0 mm 8 mps 721 mmHg 38%
15:00 +34°C° 0 mm 7 mps 721 mmHg 39%
16:00 +34°C° 0 mm 7 mps 720 mmHg 41%
17:00 +33°C° 0 mm 7 mps 720 mmHg 42%
18:00 +32°C° 0 mm 7 mps 720 mmHg 45%
19:00 +30°C° 0 mm 6 mps 720 mmHg 49%
20:00 +29°C° 0 mm 6 mps 720 mmHg 52%
21:00 +29°C° 0 mm 6 mps 720 mmHg 52%
22:00 +28°C° 0 mm 6 mps 721 mmHg 52%
23:00 +28°C° 0 mm 6 mps 721 mmHg 52%

18 July, Saturday

Time Temperature Precipitation Wind Pressure Humidity
00:00 +28°C° 0 mm 6 mps 721 mmHg 54%
01:00 +28°C° 0 mm 6 mps 720 mmHg 56%
02:00 +27°C° 0 mm 6 mps 720 mmHg 58%
03:00 +27°C° 0 mm 6 mps 720 mmHg 58%
04:00 +27°C° 0 mm 6 mps 720 mmHg 58%
05:00 +27°C° 0 mm 6 mps 720 mmHg 58%
06:00 +27°C° 0 mm 7 mps 720 mmHg 58%
07:00 +28°C° 0 mm 7 mps 721 mmHg 57%
08:00 +28°C° 0 mm 7 mps 721 mmHg 57%
09:00 +31°C° 0 mm 8 mps 721 mmHg 50%
10:00 +33°C° 0 mm 8 mps 721 mmHg 43%
11:00 +34°C° 0 mm 9 mps 721 mmHg 36%
12:00 +35°C° 0 mm 9 mps 721 mmHg 35%
13:00 +35°C° 0 mm 9 mps 720 mmHg 34%
14:00 +37°C° 0 mm 9 mps 719 mmHg 33%
15:00 +35°C° 0 mm 8 mps 719 mmHg 35%
16:00 +34°C° 0 mm 8 mps 719 mmHg 36%
17:00 +33°C° 0 mm 7 mps 719 mmHg 38%
18:00 +32°C° 0 mm 7 mps 719 mmHg 40%
19:00 +30°C° 0 mm 6 mps 719 mmHg 43%
20:00 +29°C° 0 mm 5 mps 720 mmHg 45%
21:00 +29°C° 0 mm 5 mps 720 mmHg 47%
22:00 +29°C° 0 mm 5 mps 720 mmHg 49%
23:00 +28°C° 0 mm 5 mps 721 mmHg 51%
Show more